| time (UTC) | temp C | wind direction | speed KPH | gust KPH | rain 1hr cm | rain 24hr cm | rain mn cm | humidity % | barometer mb |
| 20260506161156 | 15 | 227 | 0.0 | 8.0 | 0.00 | 0.00 | 0.00 | 83 | 1003.8 |
| 20260506160648 | 15 | 227 | 0.0 | 4.8 | 0.00 | 0.00 | 0.00 | 83 | 1003.8 |
| 20260506160159 | 15 | 227 | 0.0 | 4.8 | 0.00 | 0.00 | 0.00 | 83 | 1003.8 |
| 20260506155643 | 15 | 227 | 0.0 | 1.6 | 0.00 | 0.00 | 0.00 | 83 | 1003.8 |
| 20260506155153 | 15 | 227 | 0.0 | 1.6 | 0.00 | 0.00 | 0.00 | 83 | 1003.8 |
| 20260506154644 | 15 | 227 | 0.0 | 3.2 | 0.00 | 0.00 | 0.00 | 83 | 1003.8 |
| 20260506154156 | 15 | 227 | 0.0 | 4.8 | 0.00 | 0.00 | 0.00 | 83 | 1003.7 |
| 20260506153644 | 15 | 227 | 0.0 | 6.4 | 0.00 | 0.00 | 0.00 | 83 | 1003.8 |
| 20260506153155 | 15 | 226 | 0.0 | 9.7 | 0.00 | 0.00 | 0.00 | 83 | 1003.7 |
| 20260506152646 | 15 | 229 | 3.2 | 8.0 | 0.00 | 0.00 | 0.00 | 83 | 1003.7 |
| 20260506152154 | 15 | 232 | 0.0 | 6.4 | 0.00 | 0.00 | 0.00 | 82 | 1003.7 |
| 20260506151645 | 16 | 232 | 1.6 | 9.7 | 0.00 | 0.00 | 0.00 | 82 | 1003.7 |
| 20260506151157 | 16 | 231 | 1.6 | 8.0 | 0.00 | 0.00 | 0.00 | 82 | 1003.6 |
| 20260506150646 | 16 | 282 | 0.0 | 6.4 | 0.00 | 0.00 | 0.00 | 82 | 1003.6 |
| 20260506150156 | 16 | 282 | 1.6 | 8.0 | 0.00 | 0.00 | 0.00 | 83 | 1003.5 |
| 20260506145639 | 15 | 238 | 0.0 | 8.0 | 0.00 | 0.00 | 0.00 | 83 | 1003.5 |
| 20260506145149 | 15 | 239 | 0.0 | 6.4 | 0.00 | 0.00 | 0.00 | 83 | 1003.4 |
| 20260506144641 | 15 | 240 | 0.0 | 8.0 | 0.00 | 0.00 | 0.00 | 83 | 1003.5 |
| 20260506144154 | 15 | 240 | 0.0 | 11.3 | 0.00 | 0.00 | 0.00 | 83 | 1003.5 |
| 20260506143644 | 15 | 238 | 1.6 | 11.3 | 0.00 | 0.00 | 0.00 | 83 | 1003.5 |
| 20260506143155 | 15 | 269 | 0.0 | 4.8 | 0.00 | 0.00 | 0.00 | 83 | 1003.4 |
| 20260506142646 | 15 | 269 | 0.0 | 4.8 | 0.00 | 0.00 | 0.00 | 82 | 1003.4 |
| 20260506142140 | 15 | 267 | 0.0 | 11.3 | 0.00 | 0.00 | 0.00 | 81 | 1003.5 |
| 20260506141650 | 16 | 267 | 1.6 | 11.3 | 0.00 | 0.00 | 0.00 | 79 | 1003.5 |
| 20260506141139 | 16 | 265 | 1.6 | 11.3 | 0.00 | 0.00 | 0.00 | 76 | 1003.4 |
| 20260506140652 | 16 | 223 | 4.8 | 11.3 | 0.00 | 0.00 | 0.00 | 75 | 1003.4 |
| 20260506140200 | 16 | 240 | 0.0 | 11.3 | 0.00 | 0.00 | 0.00 | 75 | 1003.4 |
| 20260506135648 | 16 | 240 | 0.0 | 6.4 | 0.00 | 0.00 | 0.00 | 75 | 1003.4 |
| 20260506135154 | 16 | 240 | 0.0 | 4.8 | 0.00 | 0.00 | 0.00 | 75 | 1003.3 |
| 20260506134645 | 16 | 240 | 0.0 | 11.3 | 0.00 | 0.00 | 0.00 | 75 | 1003.4 |
| 20260506134156 | 16 | 240 | 1.6 | 11.3 | 0.00 | 0.00 | 0.00 | 75 | 1003.4 |
| 20260506133646 | 16 | 246 | 0.0 | 4.8 | 0.00 | 0.00 | 0.00 | 75 | 1003.3 |
| 20260506133158 | 16 | 248 | 0.0 | 8.0 | 0.00 | 0.00 | 0.00 | 74 | 1003.3 |
| 20260506132649 | 16 | 248 | 1.6 | 11.3 | 0.00 | 0.00 | 0.00 | 73 | 1003.4 |
| 20260506132158 | 16 | 221 | 3.2 | 11.3 | 0.00 | 0.00 | 0.00 | 73 | 1003.4 |
| 20260506131648 | 16 | 227 | 0.0 | 8.0 | 0.00 | 0.00 | 0.00 | 74 | 1003.3 |
| 20260506131141 | 16 | 221 | 1.6 | 8.0 | 0.00 | 0.00 | 0.00 | 73 | 1003.4 |
| 20260506130501 | 16 | 229 | 3.2 | 8.0 | 0.00 | 0.00 | 0.00 | 72 | 1003.4 |
| 20260506125643 | 17 | 233 | 0.0 | 8.0 | 0.00 | 0.00 | 0.00 | 70 | 1003.3 |
| 20260506125157 | 17 | 233 | 1.6 | 8.0 | 0.00 | 0.00 | 0.00 | 70 | 1003.3 |
| 20260506124645 | 17 | 221 | 0.0 | 1.6 | 0.00 | 0.00 | 0.00 | 72 | 1003.3 |
| 20260506124157 | 17 | 221 | 0.0 | 1.6 | 0.00 | 0.00 | 0.00 | 74 | 1003.3 |
| 20260506123646 | 17 | 223 | 0.0 | 4.8 | 0.00 | 0.00 | 0.00 | 74 | 1003.2 |
| 20260506123157 | 17 | 223 | 0.0 | 6.4 | 0.00 | 0.00 | 0.00 | 73 | 1003.3 |
| 20260506122648 | 17 | 223 | 1.6 | 6.4 | 0.00 | 0.00 | 0.00 | 74 | 1003.3 |
| 20260506122156 | 17 | 223 | 0.0 | 1.6 | 0.00 | 0.00 | 0.00 | 80 | 1003.3 |
| 20260506121647 | 16 | 223 | 0.0 | 1.6 | 0.00 | 0.00 | 0.00 | 80 | 1003.3 |
| 20260506121143 | 16 | 223 | 0.0 | 1.6 | 0.00 | 0.00 | 0.00 | 80 | 1003.3 |
| 20260506120504 | 15 | 223 | 0.0 | 1.6 | 0.00 | 0.00 | 0.00 | 80 | 1003.3 |
| 20260506115651 | 15 | 223 | 0.0 | 1.6 | 0.00 | 0.00 | 0.00 | 80 | 1003.3 |
| 20260506115159 | 15 | 223 | 0.0 | 4.8 | 0.00 | 0.00 | 0.00 | 79 | 1003.4 |
| 20260506114502 | 15 | 221 | 0.0 | 1.6 | 0.00 | 0.00 | 0.00 | 79 | 1003.4 |
| 20260506114158 | 15 | 221 | 0.0 | 1.6 | 0.00 | 0.00 | 0.00 | 78 | 1003.4 |
| 20260506113648 | 15 | 221 | 0.0 | 4.8 | 0.00 | 0.00 | 0.00 | 78 | 1003.4 |
| 20260506113139 | 15 | 221 | 0.0 | 4.8 | 0.00 | 0.00 | 0.00 | 78 | 1003.4 |
| 20260506112650 | 15 | 221 | 0.0 | 4.8 | 0.00 | 0.00 | 0.00 | 78 | 1003.4 |
| 20260506112142 | 15 | 221 | 0.0 | 3.2 | 0.00 | 0.00 | 0.00 | 78 | 1003.4 |
| 20260506111652 | 15 | 221 | 0.0 | 3.2 | 0.00 | 0.00 | 0.00 | 78 | 1003.4 |
| 20260506111145 | 15 | 221 | 0.0 | 6.4 | 0.00 | 0.00 | 0.00 | 79 | 1003.4 |
| 20260506110506 | 16 | 221 | 1.6 | 6.4 | 0.00 | 0.00 | 0.00 | 79 | 1003.4 |
| 20260506105647 | 15 | 217 | 0.0 | 4.8 | 0.00 | 0.00 | 0.00 | 80 | 1003.4 |
| 20260506105158 | 15 | 217 | 0.0 | 3.2 | 0.00 | 0.00 | 0.00 | 81 | 1003.4 |
| 20260506104501 | 15 | 217 | 0.0 | 3.2 | 0.00 | 0.00 | 0.00 | 83 | 1003.4 |
| 20260506104200 | 15 | 217 | 0.0 | 1.6 | 0.00 | 0.00 | 0.00 | 83 | 1003.3 |
| 20260506103649 | 15 | 217 | 0.0 | 3.2 | 0.00 | 0.00 | 0.00 | 83 | 1003.4 |
| 20260506103143 | 15 | 217 | 0.0 | 4.8 | 0.00 | 0.00 | 0.00 | 83 | 1003.4 |
| 20260506102652 | 15 | 217 | 0.0 | 4.8 | 0.00 | 0.00 | 0.00 | 82 | 1003.4 |
| 20260506102141 | 15 | 217 | 0.0 | 1.6 | 0.00 | 0.00 | 0.00 | 83 | 1003.4 |
| 20260506101652 | 15 | 217 | 0.0 | 1.6 | 0.00 | 0.00 | 0.00 | 83 | 1003.4 |
| 20260506101144 | 15 | 217 | 0.0 | 3.2 | 0.00 | 0.00 | 0.00 | 83 | 1003.4 |
| 20260506100654 | 15 | 217 | 0.0 | 9.7 | 0.00 | 0.00 | 0.00 | 83 | 1003.5 |
| 20260506100149 | 15 | 217 | 3.2 | 12.9 | 0.00 | 0.00 | 0.00 | 83 | 1003.5 |
| 20260506095655 | 15 | 213 | 1.6 | 12.9 | 0.00 | 0.00 | 0.00 | 84 | 1003.4 |
| 20260506095144 | 15 | 236 | 0.0 | 8.0 | 0.00 | 0.00 | 0.00 | 86 | 1003.4 |
| 20260506094655 | 15 | 238 | 0.0 | 8.0 | 0.00 | 0.00 | 0.00 | 86 | 1003.4 |
| 20260506094144 | 15 | 236 | 0.0 | 11.3 | 0.00 | 0.00 | 0.00 | 87 | 1003.5 |
| 20260506093654 | 15 | 237 | 1.6 | 11.3 | 0.00 | 0.00 | 0.00 | 88 | 1003.4 |
| 20260506093145 | 15 | 252 | 0.0 | 9.7 | 0.00 | 0.00 | 0.00 | 88 | 1003.5 |
| 20260506092658 | 14 | 273 | 0.0 | 4.8 | 0.00 | 0.00 | 0.00 | 89 | 1003.4 |
| 20260506092146 | 14 | 275 | 0.0 | 12.9 | 0.00 | 0.00 | 0.00 | 89 | 1003.4 |
| 20260506091657 | 13 | 224 | 1.6 | 12.9 | 0.00 | 0.00 | 0.00 | 89 | 1003.4 |
| 20260506091147 | 13 | 227 | 1.6 | 6.4 | 0.00 | 0.00 | 0.00 | 90 | 1003.4 |
| 20260506090658 | 13 | 227 | 0.0 | 8.0 | 0.00 | 0.00 | 0.00 | 90 | 1003.3 |
| 20260506090148 | 13 | 227 | 1.6 | 8.0 | 0.00 | 0.00 | 0.00 | 91 | 1003.4 |
| 20260506085144 | 13 | 227 | 0.0 | 6.4 | 0.00 | 0.00 | 0.00 | 91 | 1003.3 |
| 20260506084654 | 13 | 227 | 0.0 | 6.4 | 0.00 | 0.00 | 0.00 | 91 | 1003.4 |
| 20260506084145 | 13 | 227 | 1.6 | 6.4 | 0.00 | 0.00 | 0.00 | 92 | 1003.4 |
| 20260506083655 | 13 | 230 | 1.6 | 9.7 | 0.00 | 0.00 | 0.00 | 92 | 1003.3 |
| 20260506083144 | 13 | 246 | 1.6 | 11.3 | 0.00 | 0.00 | 0.00 | 92 | 1003.3 |
| 20260506082657 | 13 | 228 | 0.0 | 6.4 | 0.00 | 0.00 | 0.00 | 92 | 1003.2 |
| 20260506082146 | 13 | 223 | 0.0 | 6.4 | 0.00 | 0.00 | 0.00 | 92 | 1003.3 |
| 20260506081658 | 13 | 223 | 0.0 | 6.4 | 0.00 | 0.00 | 0.00 | 93 | 1003.2 |
| 20260506081147 | 13 | 223 | 0.0 | 6.4 | 0.00 | 0.00 | 0.00 | 93 | 1003.2 |
| 20260506080659 | 13 | 234 | 0.0 | 9.7 | 0.00 | 0.00 | 0.00 | 93 | 1003.2 |
| 20260506080148 | 13 | 222 | 1.6 | 8.0 | 0.00 | 0.00 | 0.00 | 93 | 1003.2 |
| 20260506073149 | 13 | 238 | 0.0 | 4.8 | 0.00 | 0.00 | 0.00 | 93 | 1003.2 |
| 20260506072703 | 12 | 238 | 0.0 | 4.8 | 0.00 | 0.00 | 0.00 | 93 | 1003.2 |
| 20260506072150 | 12 | 238 | 0.0 | 4.8 | 0.00 | 0.00 | 0.00 | 93 | 1003.2 |
| 20260506071640 | 12 | 238 | 0.0 | 4.8 | 0.00 | 0.00 | 0.00 | 93 | 1003.2 |
| 20260506071154 | 12 | 240 | 0.0 | 6.4 | 0.00 | 0.00 | 0.00 | 94 | 1003.2 |
| 20260506070643 | 12 | 240 | 0.0 | 3.2 | 0.00 | 0.00 | 0.00 | 94 | 1003.2 |
| 20260506070155 | 12 | 240 | 0.0 | 1.6 | 0.00 | 0.00 | 0.00 | 94 | 1003.3 |
| 20260506062151 | 12 | 240 | 0.0 | 0.0 | 0.00 | 0.00 | 0.00 | 94 | 1003.0 |
| 20260506061642 | 12 | 240 | 0.0 | 0.0 | 0.00 | 0.00 | 0.00 | 94 | 1002.9 |
| 20260506061155 | 12 | 240 | 0.0 | 1.6 | 0.00 | 0.00 | 0.00 | 94 | 1003.0 |
| 20260506060644 | 12 | 240 | 0.0 | 1.6 | 0.00 | 0.00 | 0.00 | 94 | 1002.9 |
| 20260506060154 | 12 | 240 | 0.0 | 1.6 | 0.00 | 0.00 | 0.00 | 94 | 1002.9 |
| 20260506051158 | 12 | 240 | 0.0 | 0.0 | 0.00 | 0.00 | 0.00 | 94 | 1002.8 |
| 20260506050648 | 12 | 240 | 0.0 | 0.0 | 0.00 | 0.00 | 0.00 | 94 | 1002.8 |
| 20260506050159 | 12 | 240 | 0.0 | 0.0 | 0.00 | 0.00 | 0.00 | 94 | 1002.9 |
| 20260506044642 | 12 | 240 | 0.0 | 1.6 | 0.00 | 0.00 | 0.00 | 94 | 1003.0 |
| 20260506044154 | 12 | 240 | 0.0 | 1.6 | 0.00 | 0.00 | 0.00 | 94 | 1003.0 |
| 20260506043643 | 12 | 240 | 0.0 | 1.6 | 0.00 | 0.00 | 0.00 | 94 | 1003.0 |
| 20260506043154 | 12 | 240 | 0.0 | 3.2 | 0.00 | 0.00 | 0.00 | 94 | 1003.0 |
| 20260506042645 | 12 | 240 | 0.0 | 4.8 | 0.00 | 0.00 | 0.00 | 94 | 1003.0 |
| 20260506042156 | 12 | 240 | 0.0 | 4.8 | 0.00 | 0.00 | 0.00 | 94 | 1003.0 |
| 20260506041646 | 12 | 240 | 0.0 | 1.6 | 0.00 | 0.00 | 0.00 | 94 | 1003.0 |
| 20260506041157 | 12 | 240 | 0.0 | 1.6 | 0.00 | 0.00 | 0.00 | 94 | 1003.0 |
| 20260506040650 | 12 | 240 | 0.0 | 4.8 | 0.00 | 0.00 | 0.00 | 94 | 1003.1 |
| 20260506040158 | 12 | 240 | 0.0 | 6.4 | 0.00 | 0.00 | 0.00 | 94 | 1002.9 |
| 20260506035639 | 12 | 240 | 0.0 | 6.4 | 0.00 | 0.00 | 0.00 | 94 | 1003.0 |
| 20260506035151 | 12 | 240 | 0.0 | 1.6 | 0.00 | 0.00 | 0.00 | 94 | 1002.9 |
| 20260506034642 | 12 | 240 | 0.0 | 1.6 | 0.00 | 0.00 | 0.00 | 94 | 1002.8 |
| 20260506034154 | 12 | 240 | 0.0 | 6.4 | 0.00 | 0.00 | 0.00 | 94 | 1002.9 |
| 20260506033646 | 12 | 240 | 0.0 | 6.4 | 0.00 | 0.00 | 0.00 | 94 | 1003.0 |
| 20260506033157 | 12 | 240 | 0.0 | 6.4 | 0.00 | 0.00 | 0.00 | 94 | 1003.0 |
| 20260506032650 | 12 | 240 | 0.0 | 1.6 | 0.00 | 0.00 | 0.00 | 94 | 1003.0 |
| 20260506032159 | 12 | 240 | 0.0 | 4.8 | 0.00 | 0.00 | 0.00 | 94 | 1002.9 |
| 20260506031650 | 12 | 240 | 0.0 | 4.8 | 0.00 | 0.00 | 0.00 | 94 | 1002.9 |
| 20260506030649 | 12 | 240 | 0.0 | 1.6 | 0.00 | 0.00 | 0.00 | 94 | 1003.0 |
| 20260506030158 | 12 | 240 | 0.0 | 3.2 | 0.00 | 0.00 | 0.00 | 94 | 1002.9 |
| 20260506025642 | 12 | 240 | 0.0 | 4.8 | 0.00 | 0.00 | 0.00 | 94 | 1003.0 |
| 20260506025154 | 12 | 240 | 0.0 | 4.8 | 0.00 | 0.00 | 0.00 | 94 | 1003.0 |
| 20260506024644 | 12 | 240 | 0.0 | 3.2 | 0.00 | 0.00 | 0.00 | 94 | 1002.9 |
| 20260506024156 | 12 | 240 | 0.0 | 0.0 | 0.00 | 0.00 | 0.00 | 94 | 1002.9 |
| 20260506023645 | 12 | 240 | 0.0 | 0.0 | 0.00 | 0.00 | 0.00 | 94 | 1003.0 |
| 20260506023153 | 12 | 240 | 0.0 | 0.0 | 0.00 | 0.00 | 0.00 | 94 | 1003.0 |
| 20260506022645 | 12 | 240 | 0.0 | 0.0 | 0.00 | 0.00 | 0.00 | 94 | 1003.0 |
| 20260506022155 | 12 | 240 | 0.0 | 0.0 | 0.00 | 0.00 | 0.00 | 94 | 1003.0 |
| 20260506021645 | 12 | 240 | 0.0 | 0.0 | 0.00 | 0.00 | 0.00 | 94 | 1003.2 |
| 20260506021200 | 12 | 240 | 0.0 | 0.0 | 0.00 | 0.00 | 0.00 | 93 | 1003.2 |
| 20260506020648 | 12 | 240 | 0.0 | 1.6 | 0.00 | 0.00 | 0.00 | 93 | 1003.2 |
| 20260506020158 | 12 | 240 | 0.0 | 1.6 | 0.00 | 0.00 | 0.00 | 93 | 1003.2 |
| 20260506015642 | 12 | 240 | 0.0 | 1.6 | 0.00 | 0.00 | 0.00 | 93 | 1003.3 |
| 20260506015153 | 12 | 240 | 0.0 | 1.6 | 0.00 | 0.00 | 0.00 | 93 | 1003.3 |
| 20260506014643 | 12 | 240 | 0.0 | 0.0 | 0.00 | 0.00 | 0.00 | 93 | 1003.3 |
| 20260506014155 | 12 | 240 | 0.0 | 0.0 | 0.00 | 0.00 | 0.00 | 93 | 1003.3 |
| 20260506013646 | 12 | 240 | 0.0 | 0.0 | 0.00 | 0.00 | 0.00 | 94 | 1003.4 |
| 20260506013140 | 12 | 240 | 0.0 | 0.0 | 0.00 | 0.00 | 0.00 | 94 | 1003.4 |
| 20260506012651 | 12 | 240 | 0.0 | 0.0 | 0.00 | 0.00 | 0.00 | 94 | 1003.4 |
| 20260506012141 | 12 | 240 | 0.0 | 0.0 | 0.00 | 0.00 | 0.00 | 94 | 1003.4 |
| 20260506011653 | 12 | 240 | 0.0 | 0.0 | 0.00 | 0.00 | 0.00 | 93 | 1003.4 |
| 20260506011144 | 12 | 240 | 0.0 | 0.0 | 0.00 | 0.00 | 0.00 | 93 | 1003.4 |
| 20260506010506 | 12 | 240 | 0.0 | 0.0 | 0.00 | 0.00 | 0.00 | 93 | 1003.3 |
| 20260506005646 | 12 | 240 | 0.0 | 0.0 | 0.00 | 0.00 | 0.00 | 93 | 1003.3 |
| 20260506005156 | 12 | 240 | 0.0 | 0.0 | 0.00 | 0.00 | 0.00 | 93 | 1003.3 |
| 20260506004648 | 12 | 240 | 0.0 | 1.6 | 0.00 | 0.00 | 0.00 | 93 | 1003.3 |
| 20260506004139 | 12 | 240 | 0.0 | 1.6 | 0.00 | 0.00 | 0.00 | 93 | 1003.4 |
| 20260506003649 | 12 | 240 | 0.0 | 0.0 | 0.00 | 0.00 | 0.00 | 93 | 1003.5 |
| 20260506003141 | 12 | 240 | 0.0 | 0.0 | 0.00 | 0.00 | 0.00 | 93 | 1003.5 |
| 20260506002650 | 12 | 240 | 0.0 | 0.0 | 0.00 | 0.00 | 0.00 | 93 | 1003.5 |
| 20260506002141 | 12 | 240 | 0.0 | 0.0 | 0.00 | 0.00 | 0.00 | 93 | 1003.7 |
| 20260506001651 | 12 | 240 | 0.0 | 0.0 | 0.00 | 0.00 | 0.00 | 93 | 1003.7 |
| 20260506001141 | 12 | 240 | 0.0 | 0.0 | 0.00 | 0.00 | 0.00 | 93 | 1003.7 |
| 20260506000504 | 12 | 240 | 0.0 | 0.0 | 0.00 | 0.00 | 0.00 | 93 | 1003.8 |
| 20260505235644 | 12 | 240 | 0.0 | 0.0 | 0.00 | 0.00 | 0.00 | 93 | 1003.8 |
| 20260505235155 | 12 | 240 | 0.0 | 0.0 | 0.00 | 0.00 | 0.00 | 93 | 1003.9 |
| 20260505234156 | 12 | 240 | 0.0 | 0.0 | 0.00 | 0.00 | 0.00 | 93 | 1004.0 |
| 20260505233646 | 12 | 240 | 0.0 | 0.0 | 0.00 | 0.00 | 0.00 | 93 | 1004.0 |
| 20260505233157 | 12 | 240 | 0.0 | 0.0 | 0.00 | 0.00 | 0.00 | 93 | 1003.9 |
| 20260505232649 | 12 | 240 | 0.0 | 0.0 | 0.00 | 0.00 | 0.00 | 93 | 1004.0 |
| 20260505232143 | 12 | 240 | 0.0 | 0.0 | 0.00 | 0.00 | 0.00 | 93 | 1004.0 |
| 20260505231654 | 12 | 240 | 0.0 | 0.0 | 0.00 | 0.00 | 0.00 | 93 | 1004.1 |
| 20260505231142 | 13 | 240 | 0.0 | 0.0 | 0.00 | 0.00 | 0.00 | 93 | 1004.1 |
| 20260505230504 | 13 | 240 | 0.0 | 0.0 | 0.00 | 0.00 | 0.00 | 93 | 1004.1 |
| 20260505225648 | 13 | 240 | 0.0 | 1.6 | 0.00 | 0.00 | 0.00 | 93 | 1004.2 |
| 20260505225157 | 13 | 240 | 0.0 | 1.6 | 0.00 | 0.00 | 0.00 | 93 | 1004.2 |
| 20260505224648 | 13 | 240 | 0.0 | 0.0 | 0.00 | 0.00 | 0.00 | 93 | 1004.2 |
| 20260505224138 | 13 | 240 | 0.0 | 0.0 | 0.00 | 0.00 | 0.00 | 93 | 1004.3 |
| 20260505223649 | 13 | 240 | 0.0 | 0.0 | 0.00 | 0.00 | 0.00 | 93 | 1004.3 |
| 20260505223141 | 13 | 240 | 0.0 | 0.0 | 0.00 | 0.00 | 0.00 | 93 | 1004.4 |
| 20260505222652 | 13 | 240 | 0.0 | 0.0 | 0.00 | 0.00 | 0.00 | 93 | 1004.4 |
| 20260505222143 | 13 | 240 | 0.0 | 0.0 | 0.00 | 0.00 | 0.00 | 93 | 1004.4 |
| 20260505221654 | 13 | 240 | 0.0 | 0.0 | 0.00 | 0.00 | 0.00 | 93 | 1004.5 |
| 20260505221144 | 13 | 240 | 0.0 | 0.0 | 0.00 | 0.00 | 0.00 | 93 | 1004.6 |
| 20260505220657 | 13 | 240 | 0.0 | 0.0 | 0.00 | 0.00 | 0.00 | 93 | 1004.5 |
| 20260505215651 | 13 | 240 | 0.0 | 0.0 | 0.00 | 0.00 | 0.00 | 93 | 1004.5 |
| 20260505215141 | 13 | 240 | 0.0 | 0.0 | 0.00 | 0.00 | 0.00 | 93 | 1004.5 |
| 20260505214653 | 13 | 240 | 0.0 | 0.0 | 0.00 | 0.00 | 0.00 | 93 | 1004.5 |
| 20260505214144 | 13 | 240 | 0.0 | 0.0 | 0.00 | 0.00 | 0.00 | 93 | 1004.6 |
| 20260505213655 | 13 | 240 | 0.0 | 0.0 | 0.00 | 0.00 | 0.00 | 93 | 1004.6 |
| 20260505213142 | 13 | 240 | 0.0 | 0.0 | 0.00 | 0.00 | 0.00 | 93 | 1004.6 |
| 20260505212654 | 13 | 240 | 0.0 | 0.0 | 0.00 | 0.00 | 0.00 | 93 | 1004.6 |
| 20260505212145 | 13 | 240 | 0.0 | 0.0 | 0.00 | 0.00 | 0.00 | 93 | 1004.7 |
| 20260505211655 | 13 | 240 | 0.0 | 0.0 | 0.00 | 0.00 | 0.00 | 93 | 1004.8 |
| 20260505211147 | 13 | 240 | 0.0 | 0.0 | 0.00 | 0.00 | 0.00 | 93 | 1004.8 |
| 20260505210507 | 13 | 240 | 0.0 | 0.0 | 0.00 | 0.00 | 0.00 | 93 | 1004.8 |
| 20260505205649 | 13 | 240 | 0.0 | 0.0 | 0.00 | 0.00 | 0.00 | 93 | 1004.8 |
| 20260505205201 | 13 | 240 | 0.0 | 0.0 | 0.00 | 0.00 | 0.00 | 92 | 1004.8 |
| 20260505204648 | 13 | 240 | 0.0 | 0.0 | 0.00 | 0.00 | 0.00 | 92 | 1004.8 |
| 20260505204141 | 13 | 240 | 0.0 | 1.6 | 0.00 | 0.00 | 0.00 | 92 | 1004.9 |
| 20260505203650 | 13 | 240 | 0.0 | 1.6 | 0.00 | 0.00 | 0.00 | 93 | 1004.8 |
| 20260505203147 | 13 | 240 | 0.0 | 1.6 | 0.00 | 0.00 | 0.00 | 92 | 1004.9 |
| 20260505202655 | 13 | 240 | 0.0 | 1.6 | 0.00 | 0.00 | 0.00 | 92 | 1004.9 |
| 20260505202146 | 13 | 240 | 0.0 | 0.0 | 0.00 | 0.00 | 0.00 | 92 | 1004.8 |
| 20260505201659 | 13 | 240 | 0.0 | 0.0 | 0.00 | 0.00 | 0.00 | 92 | 1004.8 |
| 20260505201146 | 13 | 240 | 0.0 | 0.0 | 0.00 | 0.00 | 0.00 | 92 | 1004.8 |
| 20260505200656 | 13 | 240 | 0.0 | 0.0 | 0.00 | 0.00 | 0.00 | 92 | 1004.8 |
| 20260505200148 | 13 | 240 | 0.0 | 0.0 | 0.00 | 0.00 | 0.00 | 92 | 1004.8 |
| 20260505195650 | 13 | 240 | 0.0 | 0.0 | 0.00 | 0.00 | 0.00 | 92 | 1004.8 |
| 20260505195143 | 13 | 240 | 0.0 | 0.0 | 0.00 | 0.00 | 0.00 | 92 | 1004.8 |
| 20260505194654 | 13 | 240 | 0.0 | 0.0 | 0.00 | 0.00 | 0.00 | 92 | 1004.7 |
| 20260505194142 | 13 | 240 | 0.0 | 0.0 | 0.00 | 0.00 | 0.00 | 92 | 1004.7 |
| 20260505193652 | 13 | 240 | 0.0 | 0.0 | 0.00 | 0.00 | 0.00 | 92 | 1004.7 |
| 20260505193141 | 13 | 240 | 0.0 | 0.0 | 0.00 | 0.00 | 0.00 | 92 | 1004.7 |
| 20260505192654 | 13 | 240 | 0.0 | 0.0 | 0.00 | 0.00 | 0.00 | 92 | 1004.7 |
| 20260505192142 | 13 | 240 | 0.0 | 0.0 | 0.00 | 0.00 | 0.00 | 92 | 1004.8 |
| 20260505191655 | 13 | 240 | 0.0 | 0.0 | 0.00 | 0.00 | 0.00 | 92 | 1004.7 |
| 20260505191142 | 13 | 240 | 0.0 | 0.0 | 0.00 | 0.00 | 0.00 | 92 | 1004.7 |
| 20260505190502 | 13 | 240 | 0.0 | 0.0 | 0.00 | 0.00 | 0.00 | 92 | 1004.7 |
| 20260505185645 | 13 | 240 | 0.0 | 0.0 | 0.00 | 0.00 | 0.00 | 92 | 1004.7 |
| 20260505185155 | 13 | 240 | 0.0 | 0.0 | 0.00 | 0.00 | 0.00 | 92 | 1004.7 |
| 20260505184647 | 13 | 240 | 0.0 | 0.0 | 0.00 | 0.00 | 0.00 | 92 | 1004.7 |
| 20260505184158 | 13 | 240 | 0.0 | 0.0 | 0.00 | 0.00 | 0.00 | 92 | 1004.7 |
| 20260505183648 | 13 | 240 | 0.0 | 0.0 | 0.00 | 0.00 | 0.00 | 92 | 1004.8 |
| 20260505183157 | 13 | 240 | 0.0 | 0.0 | 0.00 | 0.00 | 0.00 | 91 | 1004.8 |
| 20260505182648 | 13 | 240 | 0.0 | 0.0 | 0.00 | 0.00 | 0.00 | 91 | 1004.8 |
| 20260505182144 | 13 | 240 | 0.0 | 0.0 | 0.00 | 0.00 | 0.00 | 92 | 1004.9 |
| 20260505181656 | 13 | 240 | 0.0 | 0.0 | 0.00 | 0.00 | 0.00 | 92 | 1004.8 |
| 20260505181144 | 13 | 240 | 0.0 | 0.0 | 0.00 | 0.00 | 0.00 | 91 | 1004.9 |
| 20260505180655 | 13 | 240 | 0.0 | 0.0 | 0.00 | 0.00 | 0.00 | 91 | 1004.8 |
| 20260505180146 | 13 | 240 | 0.0 | 0.0 | 0.00 | 0.00 | 0.00 | 91 | 1004.8 |
| 20260505175651 | 13 | 240 | 0.0 | 0.0 | 0.00 | 0.00 | 0.00 | 91 | 1004.9 |
| 20260505175144 | 13 | 240 | 0.0 | 0.0 | 0.00 | 0.00 | 0.00 | 91 | 1004.9 |
| 20260505174652 | 13 | 240 | 0.0 | 0.0 | 0.00 | 0.00 | 0.00 | 91 | 1004.9 |
| 20260505174145 | 13 | 240 | 0.0 | 0.0 | 0.00 | 0.00 | 0.00 | 91 | 1004.8 |
| 20260505173655 | 13 | 240 | 0.0 | 0.0 | 0.00 | 0.00 | 0.00 | 91 | 1004.8 |
| 20260505173149 | 13 | 240 | 0.0 | 0.0 | 0.00 | 0.00 | 0.00 | 91 | 1004.9 |
| 20260505172658 | 13 | 240 | 0.0 | 0.0 | 0.00 | 0.00 | 0.00 | 91 | 1004.8 |
| 20260505172149 | 13 | 240 | 0.0 | 0.0 | 0.00 | 0.00 | 0.00 | 91 | 1004.9 |
| 20260505171657 | 13 | 240 | 0.0 | 0.0 | 0.00 | 0.00 | 0.00 | 91 | 1004.9 |
| 20260505171148 | 13 | 240 | 0.0 | 0.0 | 0.00 | 0.00 | 0.00 | 91 | 1004.9 |
| 20260505170640 | 13 | 240 | 0.0 | 0.0 | 0.00 | 0.00 | 0.00 | 91 | 1004.9 |
| 20260505170152 | 13 | 240 | 0.0 | 0.0 | 0.00 | 0.00 | 0.00 | 90 | 1004.9 |
| 20260505165655 | 13 | 240 | 0.0 | 0.0 | 0.00 | 0.00 | 0.00 | 91 | 1004.9 |
| 20260505165147 | 13 | 240 | 0.0 | 0.0 | 0.00 | 0.00 | 0.00 | 90 | 1004.9 |
| 20260505164656 | 13 | 240 | 0.0 | 1.6 | 0.00 | 0.00 | 0.00 | 90 | 1004.9 |
| 20260505164148 | 14 | 240 | 0.0 | 3.2 | 0.00 | 0.00 | 0.00 | 90 | 1005.0 |
| 20260505163656 | 14 | 240 | 0.0 | 3.2 | 0.00 | 0.00 | 0.00 | 90 | 1005.0 |
| 20260505163148 | 14 | 240 | 0.0 | 1.6 | 0.00 | 0.00 | 0.00 | 90 | 1005.1 |
| 20260505162638 | 14 | 240 | 0.0 | 1.6 | 0.00 | 0.00 | 0.00 | 90 | 1005.1 |
| 20260505162149 | 14 | 240 | 0.0 | 4.8 | 0.00 | 0.00 | 0.00 | 89 | 1005.1 |
| 20260505161644 | 14 | 240 | 0.0 | 4.8 | 0.00 | 0.00 | 0.00 | 89 | 1005.0 |